SCP
0 0 0 0 0 0 0 0 0 0 1 1 1 1 0 0 0 1 1 0 0 0 0 0 1 1 1 1 1 1 1 0 0 1 1 1 1 1 1 1 1 1 1
0 0 0 0 0 0 0 0 1 0 0 1 1 1 1 0 0 1 1 1 0 0 1 0 1 1 1 1 1 1 1 0 0 0 0 0 1 1 1 1 1 1 1
0 0 0 0 0 0 0 1 1 1 0 0 1 1 1 1 0 0 0 0 1 1 1 1 1 1 1 1 1 1 1 1 1 0 0 0 0 1 1 1 1 1 1
0 0 0 0 0 1 1 1 1 1 1 0 1 1 1 1 0 0 0 0 1 1 1 1 1 1 1 1 1 1 1 1 1 0 0 0 0 1 1 1 1 1 1
0 0 0 0 1 1 1 1 1 1 1 1 1 1 1 1 1 1 1 1 1 1 1 1 1 1 1 1 1 1 0 0 0 0 0 0 0 1 1 1 1 1 1
0 1 1 1 1 1 1 1 1 1 1 1 1 1 1 1 1 1 1 1 1 1 1 1 1 1 1 1 1 1 0 0 0 0 0 0 0 1 1 1 1 1 1
0 1 1 1 1 1 1 1 1 1 1 1 1 1 1 1 1 1 1 1 1 1 1 1 1 1 1 1 1 1 1 1 0 0 0 0 0 1 1 1 1 1 1
1 1 1 1 1 1 1 1 1 1 2 2 1 1 1 1 1 1 1 1 0 1 1 1 1 1 1 1 1 1 1 1 1 1 1 0 1 1 0 1 1 1 1
0 0 0 0 1 1 1 1 1 1 1 2 2 1 1 1 1 1 1 1 1 1 1 1 1 1 2 1 1 1 1 1 1 1 1 1 1 1 1 1 1 1 1
0 0 0 0 0 0 0 0 0 1 1 1 1 1 1 1 1 1 1 1 1 1 1 1 1 1 1 1 1 1 1 1 1 1 1 1 1 1 1 1 1 1 1
0 0 0 0 0 0 0 0 0 0 0 1 1 1 1 0 0 1 1 1 1 1 1 2 2 1 1 1 1 2 2 1 1 1 1 1 1 1 1 1 0 0 0
0 0 0 0 0 0 0 0 0 0 0 0 0 0 0 0 0 0 1 1 1 1 1 1 1 1 1 1 1 1 1 1 1 1 1 1 1 1 1 1 1 0 0
0 0 0 0 0 0 0 0 0 0 0 0 0 0 0 0 0 0 0 0 1 1 1 1 1 1 0 0 0 0 0 1 1 1 1 1 1 1 1 1 1 1 1
0 0 0 0 0 0 0 0 0 0 0 0 0 0 0 0 0 0 0 0 0 1 0 0 0 0 0 0 0 0 0 0 0 0 1 1 1 1 1 1 1 1 1
1 0 0 0 0 0 0 0 0 0 0 0 0 0 0 0 0 0 0 0 0 0 0 0 0 0 0 0 0 0 0 0 0 0 1 1 1 1 1 1 1 1 1
1 1 0 0 0 0 0 0 0 0 0 0 0 0 0 0 0 0 0 0 0 0 0 0 0 0 0 0 0 0 0 0 0 0 1 1 1 1 1 1 1 1 1
1 1 1 1 1 0 0 0 0 0 0 0 0 0 0 0 0 0 0 0 0 0 0 0 0 0 0 0 0 0 0 0 0 0 0 1 1 1 1 1 1 2 2
1 1 1 1 1 1 0 0 0 0 0 0 0 0 0 0 0 0 0 0 0 0 0 0 0 0 0 0 0 0 0 0 0 0 0 0 1 1 1 1 1 2 2
1 1 1 1 1 1 1 0 0 0 0 0 0 0 0 0 0 0 0 0 0 0 0 0 0 0 0 0 0 0 0 0 0 0 0 0 1 1 1 1 1 2 2
1 1 1 1 1 1 1 1 1 1 0 0 0 0 0 0 0 0 0 0 0 0 0 1 1 1 0 0 0 0 0 0 0 0 0 0 1 1 1 1 1 1 1
1 1 2 2 2 1 1 1 1 1 1 1 0 0 0 0 0 0 0 1 1 1 1 1 1 1 1 1 1 0 0 0 0 0 0 1 1 1 1 1 1 1 1
1 1 2 2 2 2 1 1 2 2 1 1 1 0 0 0 0 0 1 1 1 1 1 1 1 1 1 1 1 1 1 0 0 0 1 1 1 1 1 1 1 1 1
1 1 2 2 2 2 2 2 2 2 2 1 1 0 0 0 0 0 0 1 1 1 1 0 0 0 0 1 1 1 1 1 1 1 1 1 1 1 1 1 1 1 1
1 2 2 2 2 2 2 2 2 2 2 2 1 1 0 0 0 0 1 1 1 1 1 1 0 0 0 0 0 1 1 1 1 1 1 1 1 1 1 1 1 0 0
1 2 2 2 2 2 2 2 2 2 2 2 1 1 0 0 0 1 1 1 1 1 1 1 1 1 0 0 0 0 0 0 0 0 0 0 0 1 1 1 1 1 1
2 2 2 2 2 2 2 2 2 2 2 2 1 1 0 0 0 1 1 1 1 1 1 1 1 1 1 1 0 0 0 0 0 0 0 0 0 0 1 1 1 1 1
Wind_Speed
6 9 8 8 8 8 8 9 8 8 7 7 8 8 8 9 9 8 8 8 8 9 9 9 9 10 10 10 10 10 10 9 9 9 9 9 8 8 8 7 7 7 9
8 10 9 9 8 8 9 9 9 8 7 8 8 9 9 8 8 8 8 8 8 9 9 10 10 10 10 9 9 9 9 8 8 8 8 7 8 8 8 8 8 6 8
9 10 9 8 8 8 8 9 9 8 8 8 8 9 8 8 8 8 8 8 8 9 9 9 10 9 9 9 9 8 8 7 6 5 5 4 5 8 8 8 8 8 8
9 10 9 8 8 8 8 8 8 8 8 8 8 8 8 7 7 8 8 9 9 9 9 9 9 9 9 9 8 8 7 7 6 5 3 4 5 8 8 8 8 8 7
10 10 10 9 8 8 8 8 8 9 8 8 8 8 8 8 9 8 8 9 9 9 9 10 9 9 9 9 8 7 7 7 6 5 4 6 5 9 9 9 8 7 7
9 11 9 9 9 8 9 9 9 9 8 8 8 8 8 8 9 9 9 9 10 9 10 10 10 10 9 9 8 8 7 7 5 4 5 5 5 9 9 9 8 7 7
9 10 10 10 9 9 9 9 9 9 9 9 9 9 9 9 9 10 9 10 10 10 10 10 9 10 9 9 8 7 6 6 3 4 5 5 6 10 9 8 7 7 7
8 10 10 10 10 10 9 9 9 9 9 9 9 9 9 9 9 9 9 9 10 9 9 9 9 9 8 8 8 7 6 5 5 6 5 5 9 10 10 9 8 7 7
7 8 8 8 8 9 9 9 8 8 7 7 8 8 8 9 9 9 9 9 9 9 9 8 8 8 7 7 6 6 7 7 5 3 6 5 10 11 10 10 9 9 9
5 5 6 7 7 7 6 8 7 6 6 5 6 6 8 8 8 8 8 9 9 9 9 8 7 7 6 5 5 6 6 6 5 5 4 6 11 11 11 10 10 10 9
4 3 4 5 5 6 6 7 7 5 4 4 4 4 4 3 4 5 8 9 9 9 8 8 7 6 5 3 3 4 4 3 5 4 4 9 11 10 10 10 10 9 9
3 3 3 4 5 5 4 4 3 3 3 2 3 3 2 3 4 6 7 8 8 8 7 6 5 3 1 1 2 3 2 4 4 4 5 11 11 11 10 10 10 10 9
4 3 3 3 4 4 3 3 1 2 2 1 2 4 3 3 3 3 3 4 4 4 3 4 3 1 2 2 2 3 3 4 4 4 6 11 11 11 11 11 11 10 10
5 4 3 3 4 4 4 3 2 2 2 2 2 4 3 2 2 2 2 2 2 2 2 2 2 3 3 4 4 4 5 4 4 3 5 11 11 12 12 11 11 11 10
6 4 4 3 4 4 4 2 3 2 2 2 2 2 4 2 2 2 2 2 2 2 2 3 3 4 4 5 5 5 5 5 5 4 4 10 11 11 11 11 10 10 10
6 5 4 3 3 4 3 3 3 3 2 2 1 2 4 3 3 3 3 3 2 2 2 2 4 4 4 4 5 4 4 4 4 4 4 6 9 10 10 10 10 10 10
6 6 5 4 4 4 4 3 3 2 3 2 2 2 3 3 3 3 2 2 2 2 3 3 4 3 4 4 4 4 3 3 3 4 3 3 4 8 9 10 9 9 9
5 6 6 4 5 5 4 3 3 3 3 2 2 2 3 4 4 3 3 2 2 2 2 2 3 3 3 3 3 2 2 2 3 3 3 3 3 4 6 8 9 9 9
5 6 6 5 4 5 4 3 3 3 2 2 2 2 2 4 4 3 2 1 2 2 2 2 2 3 3 3 2 2 2 2 2 3 3 3 3 3 3 5 8 8 8
5 5 7 6 4 5 3 3 3 3 2 2 2 2 3 3 4 3 2 2 3 2 2 2 3 3 2 2 2 3 2 1 2 2 2 2 2 3 3 4 3 5 8
4 5 6 6 5 4 3 2 2 2 1 2 2 3 2 2 3 3 2 2 2 2 2 2 3 2 2 2 2 1 1 1 1 1 1 2 2 3 2 3 3 3 3
5 4 5 5 4 5 3 3 3 3 2 2 2 2 2 2 2 3 3 2 2 2 2 2 2 1 1 1 1 1 1 1 2 1 1 1 2 1 2 2 3 3 3
5 5 4 5 5 5 4 3 2 2 1 2 2 1 1 2 2 2 2 2 2 2 2 1 1 2 1 1 0 1 2 1 0 1 1 1 1 1 1 1 2 3 4
4 4 4 4 5 5 5 3 3 3 2 3 2 2 2 2 2 2 1 2 2 2 2 2 2 1 1 0 1 1 0 2 2 0 1 1 1 1 1 1 2 3 4
5 4 3 4 4 4 4 4 3 2 2 2 3 4 3 2 2 3 2 1 2 2 2 2 2 1 1 1 0 1 1 0 1 2 1 0 0 0 1 1 1 2 2
5 4 4 4 4 4 4 4 4 3 3 3 3 3 2 2 2 3 2 1 2 1 2 2 2 1 0 1 0 0 0 0 0 1 1 1 1 1 1 1 1 1 2
Wind_Direction
90 93 84 71 61 54 50 48 49 53 54 54 57 66 68 69 70 69 69 71 73 72 70 72 75 77 76 75 74 77 81 86 90 93 94 94 92 90 88 88 90 90 93
94 96 88 75 66 60 55 53 53 56 58 63 66 69 69 70 72 72 73 76 76 76 76 75 76 77 78 78 78 78 79 82 89 95 99 97 95 92 88 81 83 91 89
94 101 93 79 72 63 57 55 55 57 63 68 70 69 69 70 73 75 76 77 77 79 80 79 77 77 78 79 81 80 77 78 86 90 97 102 96 91 86 83 86 91 92
93 94 90 85 75 65 59 58 59 62 68 72 72 71 71 72 74 78 79 79 79 81 81 78 76 74 76 79 81 79 74 70 73 71 67 79 89 91 88 84 85 85 88
90 92 92 88 79 70 64 60 60 64 70 76 80 76 72 74 75 75 82 86 84 83 82 78 75 72 73 76 78 76 72 70 62 58 61 69 76 87 87 86 83 81 82
98 100 100 95 88 79 71 66 63 63 74 83 85 84 79 79 80 77 80 86 84 82 82 77 74 73 72 72 74 71 68 63 53 63 69 72 79 84 86 86 86 86 84
103 107 108 103 97 87 78 72 68 65 73 84 88 86 83 84 84 82 83 86 86 84 83 79 74 72 68 67 69 69 68 65 59 66 71 78 83 85 84 86 88 89 88
105 110 115 115 107 96 86 80 75 71 74 80 87 89 90 88 87 86 85 88 88 89 89 84 77 73 71 69 67 60 52 48 69 75 72 74 86 85 85 84 85 86 86
97 113 126 131 123 111 101 93 88 82 82 84 88 94 95 94 95 93 88 93 95 95 95 92 86 79 74 71 65 59 50 48 49 56 75 72 79 79 80 81 81 82 79
102 109 123 134 135 135 126 116 112 107 104 103 106 105 108 110 106 102 97 97 102 101 100 98 96 96 88 79 68 61 54 51 53 56 64 78 80 80 80 80 80 78 75
108 111 122 126 129 131 134 133 141 140 140 136 136 132 132 124 117 111 106 106 110 112 110 108 110 110 106 87 76 75 67 75 68 63 63 81 81 79 80 82 80 79 78
128 125 121 125 122 122 117 129 144 142 149 165 145 141 135 102 95 104 115 119 124 128 128 126 129 136 135 99 83 88 73 78 75 70 70 78 79 79 81 82 79 78 78
129 112 103 106 108 110 105 108 98 105 119 120 99 109 98 97 105 107 120 131 132 142 143 142 157 132 86 77 79 83 76 72 69 65 68 76 78 80 82 82 79 78 78
116 107 90 89 97 100 99 103 105 87 89 83 78 90 91 85 87 91 83 85 100 97 89 94 100 84 72 71 71 69 66 79 80 77 72 77 77 78 79 79 78 77 76
120 120 107 90 85 95 95 101 99 87 79 98 86 99 104 92 86 86 83 75 77 82 84 81 75 68 60 56 60 63 64 76 85 80 77 79 78 79 80 79 76 74 72
135 133 116 108 101 101 105 100 92 101 94 79 75 89 99 94 89 86 81 74 68 76 88 94 96 86 74 68 60 54 54 65 90 97 93 81 78 78 77 78 77 74 73
139 135 127 125 101 88 86 88 95 91 89 75 67 73 93 100 94 91 92 87 82 72 80 81 86 90 95 87 76 62 52 54 76 86 98 102 88 78 78 75 74 74 74
138 135 134 130 114 101 91 85 91 86 78 77 63 58 80 87 86 83 89 84 87 74 75 86 96 88 82 78 73 64 61 54 68 85 89 95 97 90 82 80 75 74 73
140 135 129 120 119 113 107 103 86 92 87 84 70 56 70 87 91 83 91 100 93 84 81 87 82 94 95 87 83 71 62 55 64 79 86 95 103 111 105 92 83 75 72
137 138 134 130 134 120 114 106 91 84 90 87 82 70 65 81 94 94 94 86 82 80 73 82 86 83 100 113 96 77 59 51 50 57 69 70 81 95 105 104 97 77 73
141 138 133 140 148 129 122 119 118 115 111 98 97 95 85 78 97 100 88 82 81 91 100 105 104 99 88 108 100 78 22 50 78 67 76 75 74 84 97 110 115 105 83
154 149 146 146 148 135 134 136 139 131 134 121 106 106 115 97 92 104 108 100 90 83 78 86 91 106 145 178 134 126 92 8 356 81 94 113 105 82 74 100 105 108 108
155 155 154 154 147 137 140 129 121 107 125 115 117 114 131 110 97 94 102 118 130 122 112 113 126 115 163 288 16 127 144 170 254 359 45 79 95 97 76 70 95 98 108
154 153 155 156 146 140 138 141 146 157 167 157 149 152 158 129 120 114 115 123 131 123 135 173 134 139 125 228 316 323 165 140 143 167 334 30 71 95 106 69 69 84 91
151 147 146 141 137 140 140 147 166 168 161 150 143 150 159 154 158 160 159 157 148 146 160 148 128 157 153 177 202 313 350 4 179 146 178 257 9 31 96 92 73 79 100
140 142 145 146 142 139 146 161 182 176 163 155 152 152 159 161 167 170 163 155 144 143 147 147 147 154 173 190 208 184 167 237 249 134 162 187 182 228 143 101 108 113 111